Regional Weather Roundup
Issued by NWS Huntsville, AL

Current Version | Previous Version | Text Only | Print | Product List | Glossary On
Versions: 1 2 3 4 5 6 7 8 9 10 11 12 13 14 15 16 17 18 19 20 21 22 23 24 25 26 27 28 29 30 31 32 33 34 35 36 37 38 39 40 41 42 43 44 45 46 47 48 49 50
000
ASUS44 KHUN 011510
RWRHUN

WEATHER ROUNDUP FOR THE TENNESSEE VALLEY
NATIONAL WEATHER SERVICE HUNTSVILLE AL
900 AM CST SUN FEB 01 2015

ALZ001>004-011600-
NORTHWEST ALABAMA

CITY           SKY/WX    TMP DP  RH WIND       PRES   REMARKS
RUSSELLVILLE     N/A     43 N/A N/A MISG        N/A
SHOALS AIRPORT LGT RAIN  46  38  73 SE8       30.00F
SHOALS TVA RES   N/A     45 N/A N/A MISG        N/A
$$

ALZ005>007-016-011600-
NORTH CENTRAL ALABAMA

CITY           SKY/WX    TMP DP  RH WIND       PRES   REMARKS
CULLMAN AG STN   N/A     48 N/A N/A S3          N/A
DECATUR AP     LGT RAIN  48  35  60 SE13      30.04F
HUNTSVILLE AP  LGT RAIN  50  31  48 SE15      30.05F
HUN NWS/UAH      N/A     49  28  44 SE8         N/A
MERIDIANVILLE  CLOUDY    48  27  43 SE8       30.06F
REDSTONE ARSN  CLOUDY    49  31  50 S13       30.05F
$$

ALZ008>010-011600-
NORTHEAST ALABAMA

CITY           SKY/WX    TMP DP  RH WIND       PRES   REMARKS
ALBERTVILLE    CLOUDY    46  37  71 S6        30.09S
FORT PAYNE     CLOUDY    46  28  49 SW3       30.13R
SCOTTSBORO AP  CLOUDY    48  28  46 S3        30.11F
VALLEY HEAD      N/A     45 N/A N/A MISG        N/A
$$

TNZ076-096-097-011600-
SOUTHEASTERN MIDDLE TENNESSEE

CITY           SKY/WX    TMP DP  RH WIND       PRES   REMARKS
TULLAHOMA      PTSUNNY   45  30  57 S14       30.05F
WINCHESTER     PTSUNNY   48  28  46 S12       30.07F
$$

...SURROUNDING SITES...

CITY           SKY/WX    TMP DP  RH WIND       PRES   REMARKS
ATLANTA        PTSUNNY   49  37  63 S9        30.17F
ANNISTON       CLOUDY    51  41  68 CALM      30.15F
BIRMINGHAM     LGT RAIN  47  41  80 SE8       30.11F
CHATTANOOGA    CLOUDY    44  28  53 SE3       30.15S
CORINTH        LGT RAIN  46  43  87 S15G23    29.92F
DALTON         CLOUDY    45  32  61 CALM      30.16R
GADSDEN        CLOUDY   N/A N/A N/A CALM      30.13F
GOLDEN TRNGL   CLOUDY    45  41  87 S12G18    30.00F FOG
HALEYVILLE     RAIN      41  38  89 S10G20    30.04F FOG
JACKSON TN     RAIN      48  45  89 S14G31    29.86F FOG
LEWISBURG      CLOUDY    46  34  63 S15       30.01F
MEMPHIS        LGT RAIN  53  51  93 S18G26    29.83F
MURFREESBORO   PTSUNNY   50  33  51 S13       30.02F
NASHVILLE      CLOUDY    47  34  60 S16       29.99F
OXFORD MS      CLOUDY    50  48  93 S12G22    29.92F FOG
ROME           CLOUDY    45  33  63 CALM      30.16R
SAVANNAH       CLOUDY    45  43  93 S14       29.93F
TUPELO         CLOUDY    48  45  89 SW14      29.97F
TUSCALOOSA     LGT RAIN  46  41  82 VRB7      30.06F
$$

...GULF COAST WEATHER...

CITY           SKY/WX    TMP DP  RH WIND       PRES   REMARKS
GULFPORT       CLOUDY    62  58  86 SE7       30.03S
PASCAGOULA     CLOUDY    63  58  83 SE8       30.04F
MOBILE         CLOUDY    56  52  86 SE6       30.06F
GULF SHORES    PTSUNNY   67  60  77 SE8       30.07F
PENSACOLA      CLOUDY    67  59  75 SE10      30.07S
DESTIN         CLOUDY    65  61  87 SE7       30.11R
PANAMA CITY    MOSUNNY   64  57  77 SE20G30   30.14R
APPALACHICOLA  MOSUNNY   66  56  70 SE16      30.17R
$$



USA.gov is the U.S. government's official web portal to all federal, state and local government web resources and services.